| time (UTC) | temp F | wind direction | speed MPH | gust MPH | rain 1hr in | rain 24hr in | rain mn in | humidity % | barometer mb |
| 20260904081201 | 63 | 158 | 0.0 | 0.0 | 0.00 | 0.36 | 0.36 | 99 | 1011.3 |
| 20260904080657 | 63 | 158 | 0.0 | 0.0 | 0.00 | 0.36 | 0.36 | 99 | 1011.1 |
| 20260904080152 | 63 | 158 | 0.0 | 0.0 | 0.00 | 0.36 | 0.36 | 99 | 1011.1 |
| 20260904075648 | 64 | 158 | 0.0 | 0.0 | 0.00 | 0.36 | 0.36 | 99 | 1011.1 |
| 20260904075143 | 64 | 158 | 0.0 | 0.0 | 0.00 | 0.36 | 0.36 | 99 | 1011.2 |
| 20260904074636 | 64 | 158 | 0.0 | 0.0 | 0.00 | 0.36 | 0.36 | 99 | 1011.2 |
| 20260904074131 | 64 | 158 | 0.0 | 0.0 | 0.00 | 0.36 | 0.36 | 99 | 1011.0 |
| 20260904073626 | 64 | 158 | 0.0 | 0.0 | 0.00 | 0.36 | 0.36 | 99 | 1011.2 |
| 20260904073122 | 64 | 158 | 0.0 | 0.0 | 0.00 | 0.36 | 0.36 | 99 | 1011.1 |
| 20260904072618 | 65 | 158 | 0.0 | 0.0 | 0.00 | 0.36 | 0.36 | 99 | 1011.0 |
| 20260904072113 | 65 | 158 | 0.0 | 0.0 | 0.00 | 0.36 | 0.36 | 99 | 1011.2 |
| 20260904071609 | 65 | 158 | 0.0 | 0.0 | 0.00 | 0.36 | 0.36 | 99 | 1010.9 |
| 20260904071103 | 66 | 158 | 0.0 | 0.0 | 0.00 | 0.36 | 0.36 | 99 | 1010.9 |
| 20260904070603 | 66 | 158 | 0.0 | 0.0 | 0.00 | 0.36 | 0.36 | 99 | 1011.2 |
| 20260904070058 | 66 | 158 | 0.0 | 0.0 | 0.00 | 0.36 | 0.36 | 99 | 1010.7 |
| 20260904065552 | 66 | 158 | 0.0 | 0.0 | 0.00 | 0.36 | 0.36 | 99 | 1011.0 |
| 20260904065048 | 66 | 158 | 0.0 | 0.0 | 0.00 | 0.36 | 0.36 | 99 | 1010.7 |
| 20260904064538 | 66 | 158 | 0.0 | 0.0 | 0.00 | 0.36 | 0.36 | 99 | 1010.7 |
| 20260904064032 | 66 | 158 | 0.0 | 0.0 | 0.00 | 0.36 | 0.36 | 99 | 1010.9 |
| 20260904063529 | 66 | 158 | 0.0 | 0.0 | 0.00 | 0.36 | 0.36 | 99 | 1010.9 |
| 20260904063023 | 66 | 158 | 0.0 | 0.0 | 0.00 | 0.36 | 0.36 | 99 | 1011.0 |
| 20260904062520 | 66 | 158 | 0.0 | 0.0 | 0.00 | 0.36 | 0.36 | 99 | 1011.1 |
| 20260904062015 | 66 | 158 | 0.0 | 0.0 | 0.00 | 0.36 | 0.36 | 99 | 1011.1 |
| 20260904061510 | 66 | 158 | 0.0 | 0.0 | 0.00 | 0.36 | 0.36 | 99 | 1011.0 |
| 20260904061007 | 67 | 158 | 0.0 | 0.0 | 0.00 | 0.36 | 0.36 | 99 | 1011.3 |
| 20260904060502 | 67 | 158 | 0.0 | 0.0 | 0.00 | 0.36 | 0.36 | 99 | 1011.2 |
| 20260904055958 | 67 | 158 | 0.0 | 0.0 | 0.00 | 0.36 | 0.36 | 99 | 1011.2 |
| 20260904055453 | 67 | 158 | 0.0 | 0.0 | 0.00 | 0.36 | 0.36 | 99 | 1011.0 |
| 20260904054949 | 67 | 158 | 0.0 | 0.0 | 0.00 | 0.36 | 0.36 | 99 | 1011.2 |
| 20260904054444 | 67 | 158 | 0.0 | 0.0 | 0.00 | 0.36 | 0.36 | 99 | 1011.2 |
| 20260904053940 | 67 | 158 | 0.0 | 0.0 | 0.00 | 0.36 | 0.36 | 99 | 1011.9 |
| 20260904053439 | 67 | 158 | 0.0 | 0.0 | 0.00 | 0.36 | 0.36 | 99 | 1011.7 |
| 20260904052935 | 67 | 158 | 0.0 | 0.0 | 0.00 | 0.36 | 0.36 | 99 | 1011.7 |
| 20260904052431 | 67 | 158 | 0.0 | 0.0 | 0.00 | 0.36 | 0.36 | 99 | 1011.6 |
| 20260904051927 | 67 | 158 | 0.0 | 0.0 | 0.05 | 0.36 | 0.36 | 99 | 1011.5 |
| 20260904051424 | 67 | 158 | 0.0 | 0.0 | 0.12 | 0.36 | 0.36 | 99 | 1011.8 |
| 20260904050917 | 67 | 158 | 0.0 | 0.0 | 0.19 | 0.35 | 0.35 | 99 | 1011.9 |
| 20260904050414 | 68 | 158 | 0.0 | 0.0 | 0.35 | 0.34 | 0.34 | 99 | 1012.3 |
| 20260904045914 | 68 | 158 | 0.0 | 0.0 | 0.42 | 0.32 | 0.32 | 99 | 1012.4 |
| 20260904045409 | 68 | 158 | 0.0 | 0.0 | 0.38 | 0.29 | 0.29 | 99 | 1012.5 |
| 20260904044909 | 68 | 158 | 0.0 | 0.0 | 0.28 | 0.25 | 0.25 | 99 | 1012.5 |
| 20260904044406 | 68 | 158 | 0.0 | 0.0 | 0.24 | 0.22 | 0.22 | 99 | 1012.2 |
| 20260904043901 | 68 | 158 | 0.0 | 0.0 | 0.31 | 0.20 | 0.20 | 99 | 1012.3 |
| 20260904043358 | 68 | 158 | 0.0 | 0.0 | 0.54 | 0.18 | 0.18 | 99 | 1012.0 |
| 20260904042853 | 68 | 158 | 0.0 | 0.0 | 0.78 | 0.15 | 0.15 | 99 | 1012.2 |
| 20260904042349 | 68 | 158 | 0.0 | 0.0 | 0.54 | 0.09 | 0.09 | 99 | 1012.1 |
| 20260904041843 | 68 | 158 | 0.0 | 0.0 | 0.12 | 0.02 | 0.02 | 99 | 1012.3 |
| 20260904041340 | 68 | 158 | 0.0 | 0.0 | 0.00 | 0.00 | 0.00 | 99 | 1011.9 |
| 20260904040836 | 68 | 158 | 0.0 | 0.0 | 0.00 | 0.00 | 0.00 | 99 | 1011.5 |
| 20260904040330 | 68 | 158 | 0.0 | 0.0 | 0.00 | 0.00 | 0.00 | 99 | 1011.5 |
| 20260904035826 | 68 | 158 | 0.0 | 0.0 | 0.00 | 0.83 | 0.83 | 99 | 1011.7 |
| 20260904035322 | 68 | 158 | 0.0 | 0.0 | 0.00 | 0.83 | 0.83 | 99 | 1011.4 |
| 20260904034820 | 68 | 158 | 0.0 | 0.0 | 0.00 | 0.83 | 0.83 | 99 | 1011.7 |
| 20260904034317 | 68 | 158 | 0.0 | 0.0 | 0.00 | 0.83 | 0.83 | 99 | 1011.6 |
| 20260904033812 | 68 | 158 | 0.0 | 0.0 | 0.00 | 0.83 | 0.83 | 99 | 1011.6 |
| 20260904033309 | 68 | 158 | 0.0 | 0.0 | 0.00 | 0.83 | 0.83 | 99 | 1011.7 |
| 20260904032804 | 68 | 158 | 0.0 | 0.0 | 0.00 | 0.83 | 0.83 | 99 | 1011.6 |
| 20260904032306 | 68 | 158 | 0.0 | 0.0 | 0.00 | 0.83 | 0.83 | 99 | 1011.7 |
| 20260904031758 | 68 | 158 | 0.0 | 0.0 | 0.00 | 0.83 | 0.83 | 99 | 1011.7 |
| 20260904031254 | 68 | 158 | 0.0 | 0.0 | 0.00 | 0.83 | 0.83 | 99 | 1011.8 |
| 20260904030750 | 68 | 158 | 0.0 | 0.0 | 0.00 | 0.83 | 0.83 | 99 | 1011.5 |
| 20260904030246 | 68 | 158 | 0.0 | 0.0 | 0.00 | 0.83 | 0.83 | 99 | 1011.8 |
| 20260904025742 | 68 | 158 | 0.0 | 0.0 | 0.00 | 0.83 | 0.83 | 99 | 1011.9 |
| 20260904025236 | 68 | 158 | 0.0 | 0.0 | 0.00 | 0.83 | 0.83 | 99 | 1011.8 |
| 20260904024731 | 68 | 158 | 0.0 | 0.0 | 0.00 | 0.83 | 0.83 | 99 | 1011.7 |
| 20260904024227 | 68 | 158 | 0.0 | 0.0 | 0.00 | 0.83 | 0.83 | 99 | 1011.9 |
| 20260904023724 | 68 | 158 | 0.0 | 0.0 | 0.00 | 0.83 | 0.83 | 99 | 1011.9 |
| 20260904023219 | 68 | 158 | 0.0 | 0.0 | 0.00 | 0.83 | 0.83 | 99 | 1011.5 |
| 20260904022713 | 68 | 158 | 0.0 | 0.0 | 0.00 | 0.83 | 0.83 | 99 | 1012.0 |
| 20260904022210 | 68 | 158 | 0.0 | 0.0 | 0.00 | 0.83 | 0.83 | 99 | 1012.0 |
| 20260904021706 | 68 | 158 | 0.0 | 0.0 | 0.00 | 0.83 | 0.83 | 99 | 1012.0 |
| 20260904021200 | 68 | 158 | 0.0 | 0.0 | 0.00 | 0.83 | 0.83 | 99 | 1012.3 |
| 20260904020656 | 68 | 158 | 0.0 | 0.0 | 0.00 | 0.83 | 0.83 | 99 | 1012.2 |
| 20260904020150 | 68 | 158 | 0.0 | 0.0 | 0.00 | 0.83 | 0.83 | 99 | 1012.2 |
| 20260904015649 | 69 | 158 | 0.0 | 0.0 | 0.00 | 0.83 | 0.83 | 99 | 1012.2 |
| 20260904015149 | 69 | 158 | 0.0 | 0.0 | 0.00 | 0.83 | 0.83 | 99 | 1012.3 |
| 20260904014648 | 69 | 158 | 0.0 | 0.0 | 0.00 | 0.83 | 0.83 | 99 | 1012.7 |
| 20260904014143 | 69 | 158 | 0.0 | 0.0 | 0.00 | 0.83 | 0.83 | 99 | 1012.6 |
| 20260904013640 | 69 | 158 | 0.0 | 0.0 | 0.00 | 0.83 | 0.83 | 99 | 1012.5 |
| 20260904013136 | 69 | 158 | 0.0 | 0.0 | 0.00 | 0.83 | 0.83 | 99 | 1012.3 |
| 20260904012631 | 69 | 158 | 0.0 | 0.0 | 0.00 | 0.83 | 0.83 | 99 | 1012.4 |
| 20260904012130 | 69 | 158 | 0.0 | 0.0 | 0.00 | 0.83 | 0.83 | 99 | 1012.5 |
| 20260904011629 | 69 | 158 | 0.0 | 0.0 | 0.00 | 0.83 | 0.83 | 99 | 1012.5 |
| 20260904011125 | 69 | 158 | 0.0 | 0.0 | 0.00 | 0.83 | 0.83 | 99 | 1012.6 |
| 20260904010621 | 69 | 158 | 0.0 | 0.0 | 0.00 | 0.83 | 0.83 | 99 | 1012.4 |
| 20260904010118 | 69 | 158 | 0.0 | 0.0 | 0.00 | 0.83 | 0.83 | 99 | 1012.4 |
| 20260904005612 | 69 | 158 | 0.0 | 0.0 | 0.00 | 0.83 | 0.83 | 99 | 1012.3 |
| 20260904005108 | 69 | 158 | 0.0 | 0.0 | 0.00 | 0.83 | 0.83 | 99 | 1012.5 |
| 20260904004603 | 69 | 158 | 0.0 | 0.0 | 0.00 | 0.83 | 0.83 | 99 | 1012.2 |
| 20260904004057 | 70 | 158 | 0.0 | 0.0 | 0.00 | 0.83 | 0.83 | 99 | 1012.0 |
| 20260904003554 | 70 | 158 | 0.0 | 0.0 | 0.00 | 0.83 | 0.83 | 99 | 1012.2 |
| 20260904003049 | 70 | 158 | 0.0 | 0.0 | 0.00 | 0.83 | 0.83 | 99 | 1012.0 |
| 20260904002544 | 70 | 158 | 0.0 | 0.0 | 0.00 | 0.83 | 0.83 | 99 | 1011.8 |
| 20260904002044 | 70 | 158 | 0.0 | 0.0 | 0.00 | 0.83 | 0.83 | 99 | 1012.0 |
| 20260904001540 | 70 | 158 | 0.0 | 0.0 | 0.00 | 0.83 | 0.83 | 99 | 1012.0 |
| 20260904001039 | 70 | 158 | 0.0 | 0.0 | 0.00 | 0.83 | 0.83 | 99 | 1012.0 |
| 20260904000539 | 70 | 158 | 0.0 | 0.0 | 0.00 | 0.83 | 0.83 | 99 | 1012.2 |
| 20260904000030 | 71 | 158 | 0.0 | 0.0 | 0.00 | 0.83 | 0.83 | 99 | 1012.1 |
| 20260903235529 | 71 | 159 | 0.0 | 0.0 | 0.00 | 0.83 | 0.83 | 99 | 1011.7 |
| 20260903235025 | 71 | 159 | 0.0 | 0.0 | 0.00 | 0.83 | 0.83 | 99 | 1011.9 |
| 20260903234520 | 71 | 159 | 0.0 | 0.0 | 0.00 | 0.83 | 0.83 | 99 | 1012.0 |
| 20260903234016 | 71 | 159 | 0.0 | 0.0 | 0.00 | 0.83 | 0.83 | 99 | 1012.0 |
| 20260903233512 | 72 | 159 | 0.0 | 0.0 | 0.00 | 0.83 | 0.83 | 99 | 1011.9 |
| 20260903233008 | 72 | 159 | 0.0 | 0.0 | 0.00 | 0.83 | 0.83 | 99 | 1012.1 |
| 20260903232503 | 73 | 159 | 0.0 | 0.0 | 0.00 | 0.83 | 0.83 | 99 | 1012.3 |
| 20260903232003 | 73 | 159 | 0.0 | 0.0 | 0.00 | 0.83 | 0.83 | 99 | 1012.2 |
| 20260903231457 | 73 | 159 | 0.0 | 0.0 | 0.00 | 0.83 | 0.83 | 99 | 1012.2 |
| 20260903230952 | 73 | 159 | 0.0 | 0.0 | 0.00 | 0.83 | 0.83 | 99 | 1012.3 |
| 20260903230448 | 73 | 159 | 0.0 | 0.0 | 0.00 | 0.83 | 0.83 | 99 | 1012.0 |
| 20260903225945 | 73 | 159 | 0.0 | 0.0 | 0.00 | 0.83 | 0.83 | 99 | 1012.0 |
| 20260903225439 | 74 | 159 | 0.0 | 0.0 | 0.00 | 0.83 | 0.83 | 99 | 1011.5 |
| 20260903224936 | 73 | 159 | 0.0 | 0.0 | 0.00 | 0.83 | 0.83 | 99 | 1011.5 |
| 20260903224431 | 73 | 159 | 0.0 | 0.0 | 0.00 | 0.83 | 0.83 | 99 | 1011.6 |
| 20260903223927 | 73 | 159 | 0.0 | 0.0 | 0.00 | 0.83 | 0.83 | 98 | 1011.6 |
| 20260903223426 | 74 | 159 | 0.0 | 0.0 | 0.00 | 0.83 | 0.83 | 98 | 1011.7 |
| 20260903222925 | 74 | 159 | 0.0 | 0.0 | 0.00 | 0.83 | 0.83 | 96 | 1011.6 |
| 20260903222421 | 75 | 159 | 0.0 | 0.0 | 0.00 | 0.83 | 0.83 | 96 | 1011.6 |
| 20260903221915 | 75 | 159 | 0.0 | 0.0 | 0.00 | 0.83 | 0.83 | 94 | 1011.6 |
| 20260903221414 | 77 | 159 | 0.0 | 0.0 | 0.00 | 0.83 | 0.83 | 91 | 1011.6 |
| 20260903220912 | 77 | 159 | 0.0 | 0.0 | 0.00 | 0.83 | 0.83 | 90 | 1011.5 |
| 20260903220406 | 77 | 159 | 0.0 | 0.0 | 0.00 | 0.83 | 0.83 | 89 | 1011.4 |
| 20260903215903 | 78 | 159 | 0.0 | 0.0 | 0.00 | 0.83 | 0.83 | 88 | 1011.5 |
| 20260903215401 | 78 | 159 | 0.0 | 0.0 | 0.00 | 0.83 | 0.83 | 86 | 1011.4 |
| 20260903214859 | 78 | 159 | 1.0 | 1.0 | 0.00 | 0.83 | 0.83 | 86 | 1011.7 |
| 20260903214355 | 79 | 159 | 1.0 | 1.0 | 0.00 | 0.83 | 0.83 | 84 | 1011.5 |
| 20260903213854 | 78 | 159 | 1.0 | 1.0 | 0.00 | 0.83 | 0.83 | 87 | 1011.6 |
| 20260903213349 | 77 | 159 | 0.0 | 1.0 | 0.00 | 0.83 | 0.83 | 88 | 1011.5 |
| 20260903212846 | 77 | 222 | 0.0 | 0.0 | 0.00 | 0.83 | 0.83 | 90 | 1011.8 |
| 20260903212342 | 77 | 222 | 0.0 | 0.0 | 0.00 | 0.83 | 0.83 | 89 | 1011.5 |
| 20260903211841 | 78 | 221 | 0.0 | 0.0 | 0.00 | 0.83 | 0.83 | 88 | 1011.6 |
| 20260903211337 | 78 | 223 | 0.0 | 0.0 | 0.00 | 0.83 | 0.83 | 86 | 1011.5 |
| 20260903210833 | 78 | 223 | 0.0 | 0.0 | 0.00 | 0.83 | 0.83 | 87 | 1011.6 |
| 20260903210328 | 78 | 223 | 1.0 | 1.0 | 0.00 | 0.83 | 0.83 | 86 | 1011.6 |
| 20260903205827 | 78 | 222 | 1.0 | 1.0 | 0.00 | 0.83 | 0.83 | 85 | 1011.7 |
| 20260903205322 | 77 | 169 | 1.0 | 1.0 | 0.00 | 0.83 | 0.83 | 88 | 1011.9 |
| 20260903204817 | 76 | 169 | 0.0 | 1.0 | 0.00 | 0.83 | 0.83 | 90 | 1011.9 |
| 20260903204313 | 77 | 168 | 0.0 | 0.0 | 0.00 | 0.83 | 0.83 | 90 | 1012.0 |
| 20260903203809 | 78 | 223 | 0.0 | 1.0 | 0.00 | 0.83 | 0.83 | 88 | 1011.9 |
| 20260903203304 | 79 | 110 | 1.0 | 1.0 | 0.00 | 0.83 | 0.83 | 84 | 1011.8 |
| 20260903202803 | 79 | 222 | 1.0 | 1.0 | 0.00 | 0.83 | 0.83 | 83 | 1011.9 |
| 20260903202300 | 80 | 250 | 1.0 | 1.0 | 0.00 | 0.83 | 0.83 | 80 | 1011.8 |
| 20260903201759 | 81 | 144 | 2.0 | 4.0 | 0.00 | 0.83 | 0.83 | 80 | 1011.7 |
| 20260903201254 | 82 | 252 | 3.0 | 3.0 | 0.00 | 0.83 | 0.83 | 76 | 1011.7 |
| 20260903200753 | 82 | 210 | 3.0 | 6.0 | 0.00 | 0.83 | 0.83 | 78 | 1011.8 |
| 20260903200248 | 80 | 277 | 2.0 | 2.0 | 0.00 | 0.83 | 0.83 | 81 | 1011.9 |
| 20260903195743 | 79 | 244 | 2.0 | 2.0 | 0.00 | 0.83 | 0.83 | 82 | 1011.8 |
| 20260903195240 | 78 | 280 | 1.0 | 1.0 | 0.00 | 0.83 | 0.83 | 84 | 1011.9 |
| 20260903194739 | 79 | 122 | 1.0 | 2.0 | 0.00 | 0.83 | 0.83 | 83 | 1011.8 |
| 20260903194235 | 80 | 278 | 2.0 | 2.0 | 0.00 | 0.83 | 0.83 | 83 | 1011.7 |
| 20260903193730 | 82 | 132 | 1.0 | 1.0 | 0.00 | 0.83 | 0.83 | 80 | 1011.8 |
| 20260903193226 | 79 | 125 | 0.0 | 1.0 | 0.00 | 0.83 | 0.83 | 84 | 1011.9 |
| 20260903192722 | 78 | 219 | 2.0 | 2.0 | 0.00 | 0.83 | 0.83 | 88 | 1011.9 |
| 20260903192217 | 79 | 236 | 0.0 | 1.0 | 0.00 | 0.83 | 0.83 | 85 | 1011.9 |
| 20260903191713 | 80 | 252 | 2.0 | 2.0 | 0.00 | 0.83 | 0.83 | 81 | 1012.0 |
| 20260903191208 | 81 | 187 | 1.0 | 2.0 | 0.00 | 0.83 | 0.83 | 80 | 1012.0 |
| 20260903190657 | 80 | 227 | 1.0 | 2.0 | 0.00 | 0.83 | 0.83 | 81 | 1012.2 |
| 20260903190157 | 80 | 218 | 2.0 | 3.0 | 0.00 | 0.83 | 0.83 | 81 | 1012.3 |
| 20260903185652 | 81 | 243 | 2.0 | 2.0 | 0.00 | 0.83 | 0.83 | 82 | 1012.1 |
| 20260903185147 | 79 | 222 | 1.0 | 1.0 | 0.00 | 0.83 | 0.83 | 82 | 1012.3 |
| 20260903184644 | 78 | 315 | 4.0 | 4.0 | 0.00 | 0.83 | 0.83 | 87 | 1012.3 |
| 20260903184139 | 78 | 244 | 2.0 | 2.0 | 0.00 | 0.83 | 0.83 | 86 | 1012.3 |
| 20260903183638 | 78 | 256 | 4.0 | 6.0 | 0.00 | 0.83 | 0.83 | 86 | 1012.6 |
| 20260903183133 | 77 | 268 | 2.0 | 2.0 | 0.00 | 0.83 | 0.83 | 88 | 1012.6 |
| 20260903182632 | 77 | 239 | 2.0 | 2.0 | 0.00 | 0.83 | 0.83 | 88 | 1012.4 |
| 20260903182128 | 77 | 228 | 1.0 | 1.0 | 0.00 | 0.83 | 0.83 | 88 | 1012.5 |
| 20260903181626 | 76 | 189 | 0.0 | 0.0 | 0.00 | 0.83 | 0.83 | 90 | 1012.6 |
| 20260903181121 | 77 | 185 | 0.0 | 1.0 | 0.00 | 0.83 | 0.83 | 89 | 1012.5 |
| 20260903180616 | 77 | 253 | 2.0 | 2.0 | 0.00 | 0.83 | 0.83 | 90 | 1012.7 |
| 20260903180111 | 77 | 153 | 0.0 | 1.0 | 0.00 | 0.83 | 0.83 | 85 | 1012.8 |
| 20260903175610 | 77 | 156 | 1.0 | 1.0 | 0.00 | 0.83 | 0.83 | 89 | 1012.7 |
| 20260903175109 | 77 | 216 | 0.0 | 0.0 | 0.00 | 0.83 | 0.83 | 88 | 1012.7 |
| 20260903174604 | 77 | 220 | 0.0 | 0.0 | 0.00 | 0.83 | 0.83 | 86 | 1012.5 |
| 20260903174059 | 77 | 221 | 1.0 | 1.0 | 0.00 | 0.83 | 0.83 | 85 | 1012.7 |
| 20260903173554 | 78 | 202 | 3.0 | 3.0 | 0.00 | 0.83 | 0.83 | 87 | 1012.7 |
| 20260903173050 | 79 | 160 | 3.0 | 6.0 | 0.00 | 0.83 | 0.83 | 81 | 1012.7 |
| 20260903172550 | 78 | 74 | 2.0 | 3.0 | 0.00 | 0.83 | 0.83 | 84 | 1012.8 |
| 20260903172046 | 79 | 224 | 2.0 | 2.0 | 0.00 | 0.83 | 0.83 | 83 | 1012.8 |
| 20260903171540 | 79 | 128 | 2.0 | 3.0 | 0.00 | 0.83 | 0.83 | 82 | 1012.9 |
| 20260903171036 | 78 | 235 | 4.0 | 6.0 | 0.00 | 0.83 | 0.83 | 85 | 1012.6 |
| 20260903170534 | 79 | 78 | 2.0 | 2.0 | 0.00 | 0.83 | 0.83 | 83 | 1012.8 |
| 20260903170030 | 77 | 214 | 2.0 | 3.0 | 0.00 | 0.83 | 0.83 | 88 | 1012.8 |
| 20260903165527 | 77 | 295 | 4.0 | 4.0 | 0.00 | 0.83 | 0.83 | 87 | 1013.0 |
| 20260903165023 | 76 | 223 | 1.0 | 2.0 | 0.00 | 0.83 | 0.83 | 89 | 1013.1 |
| 20260903164518 | 76 | 192 | 1.0 | 1.0 | 0.00 | 0.83 | 0.83 | 89 | 1013.0 |
| 20260903164013 | 75 | 175 | 1.0 | 1.0 | 0.00 | 0.83 | 0.83 | 90 | 1012.9 |
| 20260903163508 | 75 | 242 | 3.0 | 3.0 | 0.00 | 0.83 | 0.83 | 93 | 1013.0 |
| 20260903163005 | 75 | 198 | 2.0 | 2.0 | 0.00 | 0.83 | 0.83 | 90 | 1013.1 |
| 20260903162501 | 75 | 176 | 1.0 | 3.0 | 0.00 | 0.83 | 0.83 | 90 | 1013.1 |
| 20260903161956 | 75 | 102 | 1.0 | 3.0 | 0.00 | 0.83 | 0.83 | 92 | 1013.6 |
| 20260903161446 | 73 | 246 | 2.0 | 2.0 | 0.00 | 0.83 | 0.83 | 93 | 1013.2 |
| 20260903160942 | 73 | 209 | 0.0 | 1.0 | 0.00 | 0.83 | 0.83 | 94 | 1013.3 |
| 20260903160440 | 73 | 124 | 0.0 | 0.0 | 0.00 | 0.83 | 0.83 | 94 | 1013.7 |
| 20260903155939 | 73 | 243 | 1.0 | 2.0 | 0.00 | 0.83 | 0.83 | 93 | 1013.7 |
| 20260903155440 | 73 | 181 | 1.0 | 1.0 | 0.00 | 0.83 | 0.83 | 94 | 1013.3 |
| 20260903154936 | 73 | 188 | 0.0 | 1.0 | 0.00 | 0.83 | 0.83 | 93 | 1013.8 |
| 20260903154431 | 74 | 245 | 3.0 | 4.0 | 0.00 | 0.83 | 0.83 | 92 | 1013.6 |
| 20260903153927 | 73 | 211 | 2.0 | 2.0 | 0.00 | 0.83 | 0.83 | 93 | 1013.8 |
| 20260903153422 | 74 | 61 | 2.0 | 3.0 | 0.00 | 0.83 | 0.83 | 92 | 1013.9 |
| 20260903152918 | 74 | 281 | 4.0 | 4.0 | 0.00 | 0.83 | 0.83 | 94 | 1013.9 |
| 20260903152414 | 73 | 215 | 2.0 | 3.0 | 0.00 | 0.83 | 0.83 | 94 | 1013.6 |
| 20260903151909 | 71 | 202 | 2.0 | 2.0 | 0.00 | 0.83 | 0.83 | 96 | 1013.8 |
| 20260903151404 | 71 | 41 | 2.0 | 3.0 | 0.00 | 0.83 | 0.83 | 96 | 1014.0 |
| 20260903150858 | 71 | 316 | 4.0 | 6.0 | 0.00 | 0.83 | 0.83 | 96 | 1013.8 |
| 20260903150353 | 71 | 339 | 2.0 | 2.0 | 0.00 | 0.83 | 0.83 | 96 | 1013.9 |
| 20260903145848 | 71 | 181 | 1.0 | 1.0 | 0.00 | 0.83 | 0.83 | 96 | 1013.8 |
| 20260903145343 | 72 | 184 | 0.0 | 1.0 | 0.00 | 0.83 | 0.83 | 96 | 1013.8 |
| 20260903144842 | 72 | 147 | 1.0 | 1.0 | 0.00 | 0.83 | 0.83 | 96 | 1013.7 |
| 20260903144338 | 71 | 166 | 1.0 | 1.0 | 0.00 | 0.83 | 0.83 | 96 | 1013.6 |
| 20260903143833 | 71 | 200 | 0.0 | 0.0 | 0.00 | 0.83 | 0.83 | 96 | 1013.7 |
| 20260903143330 | 71 | 295 | 2.0 | 3.0 | 0.00 | 0.83 | 0.83 | 96 | 1014.0 |
| 20260903142825 | 71 | 336 | 3.0 | 3.0 | 0.00 | 0.83 | 0.83 | 96 | 1013.6 |
| 20260903142321 | 71 | 204 | 1.0 | 2.0 | 0.00 | 0.83 | 0.83 | 97 | 1013.8 |
| 20260903141816 | 71 | 193 | 0.0 | 0.0 | 0.00 | 0.83 | 0.83 | 97 | 1013.7 |
| 20260903141313 | 71 | 220 | 2.0 | 3.0 | 0.00 | 0.83 | 0.83 | 96 | 1013.5 |
| 20260903140812 | 71 | 79 | 0.0 | 0.0 | 0.00 | 0.83 | 0.83 | 98 | 1013.7 |
| 20260903140307 | 71 | 77 | 1.0 | 1.0 | 0.00 | 0.83 | 0.83 | 97 | 1013.2 |
| 20260903135803 | 71 | 79 | 0.0 | 0.0 | 0.00 | 0.83 | 0.83 | 97 | 1013.5 |
| 20260903135258 | 70 | 79 | 0.0 | 0.0 | 0.00 | 0.83 | 0.83 | 97 | 1013.5 |
| 20260903134757 | 70 | 70 | 1.0 | 2.0 | 0.00 | 0.83 | 0.83 | 99 | 1013.5 |
| 20260903134253 | 69 | 71 | 1.0 | 2.0 | 0.00 | 0.83 | 0.83 | 99 | 1013.5 |
| 20260903133750 | 69 | 71 | 2.0 | 2.0 | 0.00 | 0.83 | 0.83 | 99 | 1013.2 |
| 20260903133246 | 69 | 71 | 0.0 | 0.0 | 0.00 | 0.83 | 0.83 | 99 | 1013.1 |
| 20260903132740 | 68 | 71 | 1.0 | 3.0 | 0.00 | 0.83 | 0.83 | 99 | 1013.3 |
| 20260903132235 | 68 | 225 | 0.0 | 0.0 | 0.00 | 0.83 | 0.83 | 99 | 1013.3 |
| 20260903131730 | 68 | 142 | 0.0 | 0.0 | 0.00 | 0.83 | 0.83 | 99 | 1013.6 |
| 20260903131224 | 68 | 171 | 0.0 | 0.0 | 0.00 | 0.83 | 0.83 | 99 | 1013.8 |
| 20260903130719 | 68 | 169 | 0.0 | 0.0 | 0.00 | 0.83 | 0.83 | 99 | 1013.8 |
| 20260903130214 | 68 | 169 | 0.0 | 0.0 | 0.00 | 0.83 | 0.83 | 99 | 1013.6 |
| 20260903125712 | 67 | 169 | 0.0 | 0.0 | 0.00 | 0.83 | 0.83 | 99 | 1013.9 |
| 20260903125208 | 67 | 169 | 0.0 | 0.0 | 0.00 | 0.83 | 0.83 | 99 | 1013.6 |
| 20260903124707 | 67 | 169 | 0.0 | 0.0 | 0.00 | 0.83 | 0.83 | 99 | 1014.0 |
| 20260903124203 | 67 | 169 | 0.0 | 0.0 | 0.00 | 0.83 | 0.83 | 99 | 1013.7 |
| 20260903123701 | 67 | 169 | 0.0 | 0.0 | 0.00 | 0.83 | 0.83 | 99 | 1013.7 |
| 20260903123159 | 67 | 169 | 0.0 | 0.0 | 0.00 | 0.83 | 0.83 | 99 | 1013.7 |
| 20260903122654 | 67 | 169 | 0.0 | 0.0 | 0.00 | 0.83 | 0.83 | 99 | 1013.5 |
| 20260903122149 | 66 | 169 | 0.0 | 0.0 | 0.00 | 0.83 | 0.83 | 99 | 1013.6 |
| 20260903121647 | 66 | 169 | 0.0 | 0.0 | 0.00 | 0.83 | 0.83 | 99 | 1013.5 |
| 20260903121144 | 66 | 169 | 0.0 | 0.0 | 0.00 | 0.83 | 0.83 | 99 | 1013.3 |
| 20260903120642 | 66 | 169 | 0.0 | 0.0 | 0.00 | 0.83 | 0.83 | 99 | 1013.5 |
| 20260903120137 | 66 | 169 | 0.0 | 0.0 | 0.00 | 0.83 | 0.83 | 99 | 1013.5 |
| 20260903115635 | 65 | 169 | 0.0 | 0.0 | 0.00 | 0.83 | 0.83 | 99 | 1013.5 |
| 20260903115131 | 65 | 169 | 0.0 | 0.0 | 0.00 | 0.83 | 0.83 | 99 | 1013.6 |
| 20260903114626 | 65 | 169 | 0.0 | 0.0 | 0.00 | 0.83 | 0.83 | 99 | 1013.7 |
| 20260903114121 | 64 | 169 | 0.0 | 0.0 | 0.00 | 0.83 | 0.83 | 99 | 1013.5 |
| 20260903113616 | 64 | 169 | 0.0 | 0.0 | 0.00 | 0.83 | 0.83 | 99 | 1013.5 |
| 20260903113113 | 64 | 169 | 0.0 | 0.0 | 0.00 | 0.83 | 0.83 | 99 | 1013.5 |
| 20260903112609 | 64 | 169 | 0.0 | 0.0 | 0.00 | 0.83 | 0.83 | 99 | 1013.5 |
| 20260903112108 | 64 | 169 | 0.0 | 0.0 | 0.00 | 0.83 | 0.83 | 99 | 1013.7 |
| 20260903111607 | 64 | 169 | 0.0 | 0.0 | 0.00 | 0.83 | 0.83 | 99 | 1013.3 |
| 20260903111058 | 64 | 169 | 0.0 | 0.0 | 0.00 | 0.83 | 0.83 | 99 | 1013.6 |
| 20260903110553 | 64 | 169 | 0.0 | 0.0 | 0.00 | 0.83 | 0.83 | 99 | 1013.6 |
| 20260903110048 | 64 | 170 | 0.0 | 0.0 | 0.00 | 0.83 | 0.83 | 99 | 1013.5 |
| 20260903105543 | 64 | 170 | 0.0 | 0.0 | 0.00 | 0.83 | 0.83 | 99 | 1013.2 |
| 20260903105038 | 64 | 170 | 0.0 | 0.0 | 0.00 | 0.83 | 0.83 | 99 | 1013.1 |
| 20260903104538 | 64 | 170 | 0.0 | 0.0 | 0.00 | 0.83 | 0.83 | 99 | 1013.5 |
| 20260903104033 | 64 | 170 | 0.0 | 0.0 | 0.00 | 0.83 | 0.83 | 99 | 1013.2 |
| 20260903103529 | 64 | 170 | 0.0 | 0.0 | 0.00 | 0.83 | 0.83 | 99 | 1013.5 |
| 20260903103026 | 64 | 170 | 0.0 | 0.0 | 0.00 | 0.83 | 0.83 | 99 | 1013.2 |
| 20260903102520 | 64 | 170 | 0.0 | 0.0 | 0.00 | 0.83 | 0.83 | 99 | 1013.5 |
| 20260903102019 | 64 | 170 | 0.0 | 0.0 | 0.00 | 0.83 | 0.83 | 99 | 1013.5 |
| 20260903101514 | 64 | 170 | 0.0 | 0.0 | 0.00 | 0.83 | 0.83 | 99 | 1013.5 |
| 20260903101010 | 64 | 170 | 0.0 | 0.0 | 0.00 | 0.83 | 0.83 | 99 | 1013.8 |
| 20260903100504 | 64 | 170 | 0.0 | 0.0 | 0.00 | 0.83 | 0.83 | 99 | 1013.6 |
| 20260903100002 | 64 | 170 | 0.0 | 0.0 | 0.00 | 0.83 | 0.83 | 99 | 1013.5 |
| 20260903095456 | 64 | 170 | 0.0 | 0.0 | 0.00 | 0.83 | 0.83 | 99 | 1013.6 |
| 20260903094951 | 64 | 170 | 0.0 | 0.0 | 0.00 | 0.83 | 0.83 | 99 | 1013.6 |
| 20260903094450 | 64 | 170 | 0.0 | 0.0 | 0.00 | 0.83 | 0.83 | 99 | 1013.5 |
| 20260903093947 | 64 | 170 | 0.0 | 0.0 | 0.00 | 0.83 | 0.83 | 99 | 1013.8 |
| 20260903093442 | 64 | 170 | 0.0 | 0.0 | 0.00 | 0.83 | 0.83 | 99 | 1013.5 |
| 20260903092938 | 64 | 170 | 0.0 | 0.0 | 0.00 | 0.83 | 0.83 | 99 | 1013.6 |
| 20260903092437 | 64 | 212 | 0.0 | 0.0 | 0.00 | 0.83 | 0.83 | 99 | 1013.7 |
| 20260903091936 | 64 | 212 | 0.0 | 0.0 | 0.00 | 0.83 | 0.83 | 99 | 1013.5 |
| 20260903091434 | 64 | 238 | 0.0 | 0.0 | 0.35 | 0.83 | 0.83 | 99 | 1013.6 |
| 20260903090930 | 64 | 203 | 0.0 | 0.0 | 0.54 | 0.83 | 0.83 | 99 | 1013.5 |
| 20260903090426 | 64 | 205 | 0.0 | 0.0 | 0.19 | 0.77 | 0.77 | 99 | 1013.5 |
| 20260903085924 | 64 | 205 | 0.0 | 0.0 | 0.00 | 0.74 | 0.74 | 99 | 1013.3 |
| 20260903085423 | 64 | 205 | 0.0 | 0.0 | 0.00 | 0.74 | 0.74 | 99 | 1013.3 |
| 20260903084922 | 64 | 204 | 0.0 | 0.0 | 0.00 | 0.74 | 0.74 | 99 | 1013.5 |
| 20260903084421 | 64 | 204 | 0.0 | 0.0 | 0.00 | 0.74 | 0.74 | 99 | 1013.5 |
| 20260903083916 | 64 | 204 | 0.0 | 0.0 | 0.00 | 0.74 | 0.74 | 99 | 1013.3 |
| 20260903083413 | 64 | 204 | 0.0 | 0.0 | 0.00 | 0.74 | 0.74 | 99 | 1013.7 |
| 20260903082911 | 64 | 204 | 0.0 | 0.0 | 0.00 | 0.74 | 0.74 | 99 | 1013.5 |
| 20260903082406 | 64 | 204 | 0.0 | 0.0 | 0.00 | 0.74 | 0.74 | 99 | 1013.2 |
| 20260903081902 | 64 | 204 | 0.0 | 0.0 | 0.00 | 0.74 | 0.74 | 99 | 1013.6 |